KC1OHT-13 Weather Reports


Display with metric or nautical units.
time (UTC)temp
F
wind
direction
speed
MPH
gust
MPH
rain 1hr
in
rain 24hr
in
rain mn
in
humidity
%
barometer
mb
20260507212820 66 357 1.0 2.0 0.00 0.15 0.15 30 1003.3
20260507212316 66 53 1.0 2.0 0.00 0.15 0.15 29 1003.3
20260507211813 65 334 3.0 3.0 0.00 0.15 0.15 29 1003.3
20260507211310 65 250 2.0 3.0 0.00 0.15 0.15 29 1003.2
20260507210806 66 329 2.0 3.0 0.00 0.15 0.15 29 1003.4
20260507210303 67 205 2.0 3.0 0.00 0.15 0.15 29 1003.3
20260507205759 66 319 3.0 4.0 0.00 0.15 0.15 28 1003.3
20260507205257 66 301 2.0 3.0 0.00 0.15 0.15 28 1003.3
20260507204753 66 226 4.0 4.0 0.00 0.15 0.15 29 1003.2
20260507204251 66 183 8.0 11.0 0.00 0.15 0.15 28 1003.4
20260507203748 66 287 2.0 3.0 0.00 0.15 0.15 28 1003.3
20260507203246 67 326 2.0 4.0 0.00 0.15 0.15 28 1003.2
20260507202742 67 327 3.0 4.0 0.00 0.15 0.15 28 1003.3
20260507202238 65 4 2.0 3.0 0.00 0.15 0.15 28 1003.2
20260507201733 66 315 2.0 2.0 0.00 0.15 0.15 27 1003.2
20260507201230 66 306 4.0 6.0 0.00 0.15 0.15 28 1003.1
20260507200726 67 190 4.0 4.0 0.00 0.15 0.15 27 1003.0
20260507200222 66 97 2.0 3.0 0.00 0.15 0.15 28 1003.1
20260507195718 66 179 4.0 4.0 0.00 0.15 0.15 28 1003.4
20260507195210 67 103 3.0 4.0 0.00 0.15 0.15 27 1003.3
20260507194707 67 195 2.0 3.0 0.00 0.15 0.15 28 1003.5
20260507194203 66 87 2.0 2.0 0.00 0.15 0.15 28 1003.4
20260507193700 67 289 2.0 3.0 0.00 0.15 0.15 27 1003.3
20260507193157 67 309 2.0 3.0 0.00 0.15 0.15 27 1003.4
20260507192652 67 357 3.0 6.0 0.00 0.15 0.15 27 1003.4
20260507192150 67 279 2.0 3.0 0.00 0.15 0.15 27 1003.6
20260507191645 68 291 2.0 3.0 0.00 0.15 0.15 27 1003.6
20260507191143 67 264 1.0 2.0 0.00 0.15 0.15 28 1003.3
20260507190640 67 307 3.0 4.0 0.00 0.15 0.15 27 1003.4
20260507190139 67 322 2.0 3.0 0.00 0.15 0.15 28 1003.7
20260507185636 67 216 4.0 6.0 0.00 0.15 0.15 27 1003.6
20260507185132 67 68 1.0 2.0 0.00 0.15 0.15 28 1003.6
20260507184631 66 117 2.0 2.0 0.00 0.15 0.15 29 1003.7
20260507184129 67 334 1.0 1.0 0.00 0.15 0.15 28 1003.7
20260507183624 68 168 2.0 2.0 0.00 0.15 0.15 28 1003.6
20260507183121 65 195 1.0 2.0 0.00 0.15 0.15 30 1003.8
20260507182618 67 224 3.0 3.0 0.00 0.15 0.15 30 1003.8
20260507182114 66 39 2.0 3.0 0.00 0.15 0.15 32 1003.8
20260507181611 66 328 5.0 8.0 0.00 0.15 0.15 31 1003.9
20260507181107 66 239 3.0 4.0 0.00 0.15 0.15 31 1004.1
20260507180603 66 245 6.0 8.0 0.00 0.15 0.15 32 1004.1
20260507180101 66 190 4.0 6.0 0.00 0.15 0.15 33 1004.0
20260507175557 65 259 5.0 7.0 0.00 0.15 0.15 35 1004.0
20260507175054 65 229 4.0 7.0 0.00 0.15 0.15 36 1004.0
20260507174551 66 44 1.0 1.0 0.00 0.15 0.15 36 1003.9
20260507174049 66 35 1.0 2.0 0.00 0.15 0.15 38 1003.9
20260507173546 65 287 3.0 3.0 0.00 0.15 0.15 40 1004.0
20260507173043 66 282 5.0 7.0 0.00 0.15 0.15 40 1004.0
20260507172539 65 85 0.0 1.0 0.00 0.15 0.15 43 1003.9
20260507172036 64 238 5.0 7.0 0.00 0.15 0.15 42 1004.1
20260507171531 65 331 2.0 3.0 0.00 0.15 0.15 41 1004.0
20260507171029 64 273 2.0 3.0 0.00 0.15 0.15 43 1004.2
20260507170525 63 309 6.0 9.0 0.00 0.15 0.15 45 1004.2
20260507170022 63 343 3.0 4.0 0.00 0.15 0.15 46 1004.2
20260507165518 63 317 2.0 3.0 0.00 0.15 0.15 46 1004.2
20260507165015 64 260 3.0 4.0 0.00 0.15 0.15 46 1004.2
20260507164511 65 304 3.0 6.0 0.00 0.15 0.15 45 1004.2
20260507164008 63 336 5.0 7.0 0.00 0.15 0.15 47 1004.4
20260507163505 63 150 4.0 6.0 0.00 0.15 0.15 48 1004.5
20260507163003 63 183 2.0 3.0 0.00 0.15 0.15 48 1004.5
20260507162457 65 175 4.0 4.0 0.00 0.15 0.15 46 1004.6
20260507161955 65 172 3.0 3.0 0.00 0.15 0.15 43 1004.4
20260507161451 63 18 1.0 2.0 0.00 0.15 0.15 46 1004.7
20260507160948 61 53 1.0 1.0 0.00 0.15 0.15 50 1004.8
20260507160444 62 324 3.0 4.0 0.00 0.15 0.15 48 1004.9
20260507155939 62 305 3.0 4.0 0.00 0.15 0.15 50 1004.8
20260507155436 62 329 2.0 3.0 0.00 0.15 0.15 49 1004.8
20260507154933 64 73 1.0 2.0 0.00 0.15 0.15 46 1005.1
20260507154429 62 350 1.0 1.0 0.00 0.15 0.15 49 1005.1
20260507153927 63 175 2.0 3.0 0.00 0.15 0.15 47 1005.2
20260507153423 61 268 3.0 3.0 0.00 0.15 0.15 49 1005.0
20260507152920 62 204 3.0 3.0 0.00 0.15 0.15 48 1005.0
20260507152416 63 266 1.0 2.0 0.00 0.15 0.15 47 1004.9
20260507151912 63 289 2.0 2.0 0.00 0.15 0.15 47 1005.3
20260507151409 63 45 0.0 1.0 0.00 0.15 0.15 45 1005.2
20260507150906 63 335 3.0 4.0 0.00 0.15 0.15 44 1005.3
20260507150403 62 263 2.0 2.0 0.00 0.15 0.15 46 1005.3
20260507145859 62 289 4.0 6.0 0.00 0.15 0.15 45 1005.4
20260507145355 62 16 2.0 2.0 0.00 0.15 0.15 47 1005.4
20260507144852 63 284 2.0 3.0 0.00 0.15 0.15 45 1005.5
20260507144349 61 72 1.0 1.0 0.00 0.15 0.15 45 1005.5
20260507143846 61 203 6.0 8.0 0.00 0.15 0.15 47 1005.5
20260507143343 61 55 0.0 0.0 0.00 0.15 0.15 51 1005.5
20260507142839 61 57 2.0 2.0 0.00 0.15 0.15 51 1005.7
20260507142336 61 51 2.0 3.0 0.00 0.15 0.15 51 1005.7
20260507141832 60 280 1.0 2.0 0.00 0.15 0.15 52 1005.7
20260507141329 60 353 1.0 3.0 0.00 0.15 0.15 52 1005.4
20260507140826 60 62 2.0 3.0 0.00 0.15 0.15 52 1005.7
20260507140322 59 30 0.0 0.0 0.00 0.15 0.15 52 1005.7
20260507135821 60 81 2.0 2.0 0.00 0.15 0.15 55 1005.7
20260507135317 59 251 3.0 3.0 0.00 0.15 0.15 54 1005.6
20260507134814 58 51 3.0 6.0 0.00 0.15 0.15 55 1005.7
20260507134310 59 153 2.0 2.0 0.00 0.15 0.15 54 1005.6
20260507133806 58 283 2.0 2.0 0.00 0.15 0.15 58 1005.8
20260507133302 57 328 2.0 3.0 0.00 0.15 0.15 60 1005.7
20260507132801 58 305 3.0 4.0 0.00 0.15 0.15 62 1005.9
20260507132257 57 207 1.0 2.0 0.00 0.15 0.15 62 1006.0
20260507131754 57 296 4.0 4.0 0.00 0.15 0.15 63 1006.1
20260507131251 57 295 3.0 4.0 0.00 0.15 0.15 68 1006.1
20260507130747 56 330 2.0 2.0 0.00 0.15 0.15 68 1006.2
20260507130245 56 84 2.0 4.0 0.00 0.15 0.15 69 1006.2
20260507125744 55 236 2.0 2.0 0.00 0.15 0.15 72 1006.4
20260507125241 54 6 1.0 2.0 0.00 0.15 0.15 75 1006.4
20260507124738 54 261 2.0 2.0 0.00 0.15 0.15 77 1006.5
20260507124234 53 8 2.0 2.0 0.00 0.15 0.15 79 1006.3
20260507123733 52 206 1.0 2.0 0.00 0.15 0.15 82 1006.1
20260507123230 52 285 2.0 2.0 0.00 0.15 0.15 84 1006.2
20260507122725 51 63 1.0 1.0 0.00 0.15 0.15 85 1005.9
20260507122221 51 309 1.0 2.0 0.00 0.15 0.15 85 1005.8
20260507121717 51 246 1.0 2.0 0.00 0.15 0.15 87 1006.0
20260507121213 50 208 2.0 3.0 0.00 0.15 0.15 88 1005.7
20260507120709 50 284 2.0 3.0 0.00 0.15 0.15 89 1005.9
20260507120207 50 302 2.0 2.0 0.00 0.15 0.15 90 1005.8
20260507115703 50 338 1.0 2.0 0.00 0.15 0.15 91 1005.9
20260507115158 49 358 0.0 1.0 0.00 0.15 0.15 91 1005.7
20260507114654 49 47 1.0 1.0 0.00 0.15 0.15 92 1006.1
20260507114152 49 355 0.0 1.0 0.00 0.15 0.15 92 1005.7
20260507113649 49 349 3.0 3.0 0.00 0.15 0.15 92 1005.6
20260507113146 49 357 0.0 0.0 0.00 0.15 0.15 93 1005.6
20260507112644 49 19 0.0 1.0 0.00 0.15 0.15 93 1005.5
20260507112140 49 271 1.0 1.0 0.00 0.15 0.15 93 1005.6
20260507111638 49 345 1.0 1.0 0.00 0.15 0.15 93 1005.5
20260507111134 49 358 0.0 1.0 0.00 0.15 0.15 94 1005.6
20260507110630 49 359 0.0 0.0 0.00 0.15 0.15 94 1005.3
20260507110127 49 338 2.0 2.0 0.00 0.15 0.15 94 1005.7
20260507105624 49 358 0.0 0.0 0.00 0.15 0.15 94 1005.5
20260507105120 49 358 0.0 0.0 0.00 0.15 0.15 94 1005.9
20260507104617 49 0 0.0 0.0 0.00 0.15 0.15 94 1005.8
20260507104114 49 3 0.0 0.0 0.00 0.15 0.15 94 1005.9
20260507103610 49 359 1.0 1.0 0.00 0.15 0.15 94 1005.9
20260507103107 49 8 0.0 0.0 0.00 0.15 0.15 94 1005.2
20260507102603 49 8 1.0 1.0 0.00 0.15 0.15 94 1005.3
20260507102059 49 10 0.0 0.0 0.05 0.15 0.15 94 1005.5
20260507101555 49 17 0.0 0.0 0.05 0.15 0.15 94 1005.7
20260507101051 49 0 0.0 0.0 0.00 0.14 0.14 94 1005.6
20260507100549 49 1 0.0 0.0 0.07 0.14 0.14 94 1005.3
20260507100047 49 4 0.0 0.0 0.12 0.14 0.14 94 1005.1
20260507095544 49 284 2.0 3.0 0.19 0.14 0.14 93 1005.1
20260507095041 49 7 1.0 1.0 0.19 0.13 0.13 94 1005.2
20260507094537 50 341 1.0 1.0 0.12 0.11 0.11 94 1005.3
20260507094034 50 78 0.0 1.0 0.05 0.10 0.10 93 1005.1
20260507093532 50 336 1.0 1.0 0.00 0.09 0.09 93 1005.1
20260507093030 50 43 1.0 1.0 0.07 0.09 0.09 93 1004.9
20260507092526 50 345 1.0 2.0 0.19 0.09 0.09 93 1005.1
20260507092023 51 303 1.0 2.0 0.17 0.08 0.08 93 1005.0
20260507091520 51 12 1.0 1.0 0.12 0.06 0.06 93 1005.2
20260507091016 51 323 2.0 2.0 0.07 0.05 0.05 92 1005.2
20260507090512 51 349 0.0 1.0 0.12 0.05 0.05 92 1005.4
20260507090009 51 233 1.0 2.0 0.05 0.04 0.04 93 1005.2
20260507085506 51 208 2.0 3.0 0.00 0.03 0.03 93 1005.2
20260507085002 52 355 1.0 1.0 0.00 0.03 0.03 93 1005.5
20260507084459 52 305 4.0 4.0 0.07 0.03 0.03 92 1005.1
20260507083956 52 0 1.0 1.0 0.07 0.03 0.03 92 1004.9
20260507083452 52 3 0.0 1.0 0.00 0.02 0.02 91 1004.9
20260507082949 52 10 0.0 1.0 0.05 0.02 0.02 91 1004.9
20260507082445 52 0 1.0 1.0 0.05 0.02 0.02 90 1004.8
20260507081941 53 39 0.0 1.0 0.00 0.01 0.01 90 1004.6
20260507081438 53 7 0.0 0.0 0.00 0.01 0.01 89 1005.0
20260507080935 53 200 3.0 3.0 0.00 0.01 0.01 88 1005.2
20260507080425 53 343 1.0 1.0 0.00 0.01 0.01 88 1004.9
20260507075920 53 181 2.0 2.0 0.00 0.01 0.01 87 1004.7
20260507075416 53 4 1.0 1.0 0.00 0.01 0.01 87 1004.6
20260507074908 54 254 3.0 6.0 0.00 0.01 0.01 86 1004.8
20260507074405 54 343 1.0 1.0 0.00 0.01 0.01 84 1004.7
20260507073903 54 229 1.0 2.0 0.00 0.01 0.01 84 1004.6
20260507073359 54 358 1.0 1.0 0.00 0.01 0.01 84 1004.2
20260507072856 54 293 3.0 4.0 0.00 0.01 0.01 84 1004.2
20260507072353 54 6 0.0 1.0 0.00 0.01 0.01 85 1004.2
20260507071851 54 279 1.0 1.0 0.00 0.01 0.01 86 1004.1
20260507071348 54 283 4.0 6.0 0.00 0.01 0.01 86 1004.2
20260507070843 54 306 2.0 2.0 0.00 0.01 0.01 86 1004.3
20260507070341 54 1 1.0 2.0 0.00 0.01 0.01 86 1004.0
20260507065838 54 333 1.0 1.0 0.00 0.01 0.01 86 1004.5
20260507065335 55 219 2.0 2.0 0.00 0.01 0.01 86 1004.1
20260507064832 55 329 2.0 3.0 0.00 0.01 0.01 85 1004.2
20260507064330 55 294 2.0 3.0 0.00 0.01 0.01 84 1004.1
20260507063828 55 297 2.0 2.0 0.00 0.01 0.01 84 1004.1
20260507063324 55 309 2.0 3.0 0.00 0.01 0.01 84 1004.2
20260507062821 55 309 3.0 4.0 0.00 0.01 0.01 86 1004.2
20260507062318 56 181 1.0 2.0 0.00 0.01 0.01 89 1003.9
20260507061816 56 18 0.0 0.0 0.00 0.01 0.01 89 1003.8
20260507061314 56 49 1.0 1.0 0.00 0.01 0.01 90 1004.0
20260507060812 56 329 2.0 3.0 0.00 0.01 0.01 91 1004.2
20260507060308 56 358 0.0 1.0 0.00 0.01 0.01 91 1004.0
20260507055805 56 307 1.0 2.0 0.00 0.01 0.01 91 1004.1
20260507055300 57 340 1.0 2.0 0.00 0.01 0.01 91 1004.3
20260507054757 57 0 1.0 1.0 0.00 0.01 0.01 91 1004.6
20260507054253 57 208 3.0 4.0 0.00 0.01 0.01 91 1004.5
20260507053751 57 315 1.0 1.0 0.00 0.01 0.01 91 1004.5
20260507053248 57 333 1.0 2.0 0.00 0.01 0.01 91 1004.3
20260507052747 57 350 1.0 1.0 0.00 0.01 0.01 91 1004.1
20260507052243 57 348 1.0 2.0 0.00 0.01 0.01 90 1004.1
20260507051741 57 204 2.0 6.0 0.00 0.01 0.01 91 1004.2
20260507051238 57 18 2.0 2.0 0.00 0.01 0.01 92 1004.1
20260507050734 57 333 1.0 1.0 0.00 0.01 0.01 93 1004.2
20260507050232 58 0 1.0 1.0 0.00 0.01 0.01 94 1004.2
20260507045728 58 344 3.0 6.0 0.00 0.01 0.01 95 1004.1
20260507045224 59 243 4.0 6.0 0.00 0.01 0.01 96 1003.9
20260507044722 59 345 1.0 2.0 0.00 0.01 0.01 97 1003.9
20260507044218 59 1 1.0 2.0 0.00 0.01 0.01 97 1003.6
20260507043714 59 344 4.0 6.0 0.00 0.01 0.01 97 1003.9
20260507043211 59 337 1.0 1.0 0.00 0.01 0.01 97 1003.9
20260507042708 59 2 1.0 1.0 0.00 0.01 0.01 97 1003.8
20260507042203 59 354 1.0 1.0 0.07 0.01 0.01 97 1004.0
20260507041701 59 349 1.0 1.0 0.07 0.01 0.01 97 1004.0
20260507041156 59 355 1.0 1.0 0.00 0.00 0.00 97 1004.2
20260507040654 59 330 1.0 1.0 0.00 0.00 0.00 97 1004.1
20260507040150 59 329 1.0 1.0 0.00 0.00 0.00 96 1004.3
20260507035646 59 334 2.0 3.0 0.00 0.04 0.04 96 1004.1
20260507035142 59 239 2.0 2.0 0.00 0.04 0.04 96 1004.1
20260507034639 59 8 1.0 1.0 0.00 0.04 0.04 96 1003.9
20260507034137 59 7 1.0 1.0 0.00 0.04 0.04 95 1004.1
20260507033635 59 5 0.0 1.0 0.00 0.04 0.04 95 1003.8
20260507033132 59 331 4.0 4.0 0.00 0.04 0.04 95 1003.9
20260507032629 59 270 2.0 3.0 0.00 0.04 0.04 95 1003.7
20260507032124 59 211 2.0 3.0 0.00 0.04 0.04 95 1003.7
20260507031621 59 321 3.0 6.0 0.00 0.04 0.04 95 1003.6
20260507031113 59 9 1.0 1.0 0.00 0.04 0.04 95 1003.6
20260507030609 59 336 3.0 4.0 0.00 0.04 0.04 95 1003.4
20260507030107 59 324 2.0 3.0 0.00 0.04 0.04 95 1003.4
20260507025604 59 25 0.0 0.0 0.00 0.04 0.04 96 1003.3
20260507025100 59 345 1.0 1.0 0.00 0.04 0.04 96 1003.6
20260507024558 58 313 1.0 2.0 0.00 0.04 0.04 96 1003.7
20260507024050 58 112 1.0 2.0 0.00 0.04 0.04 96 1003.7
20260507023545 58 15 0.0 1.0 0.00 0.04 0.04 96 1003.6
20260507023043 58 18 1.0 1.0 0.00 0.04 0.04 96 1003.7
20260507022540 58 16 0.0 1.0 0.00 0.04 0.04 96 1003.7
20260507022035 58 2 2.0 2.0 0.00 0.04 0.04 96 1003.8
20260507021531 58 38 2.0 2.0 0.00 0.04 0.04 96 1004.0
20260507021028 58 302 1.0 3.0 0.00 0.04 0.04 96 1003.7
20260507020526 58 244 1.0 2.0 0.00 0.04 0.04 96 1003.6
20260507020022 58 27 0.0 1.0 0.00 0.04 0.04 95 1003.6
20260507015521 58 32 1.0 1.0 0.00 0.04 0.04 96 1003.8
20260507015018 58 321 1.0 2.0 0.00 0.04 0.04 96 1004.1
20260507014514 58 23 2.0 3.0 0.00 0.04 0.04 96 1003.8
20260507014010 58 61 1.0 2.0 0.00 0.04 0.04 96 1003.8
20260507013507 58 14 1.0 1.0 0.00 0.04 0.04 95 1003.8
20260507013004 58 25 0.0 1.0 0.00 0.04 0.04 96 1004.0
20260507012501 58 57 1.0 1.0 0.00 0.04 0.04 95 1004.1
20260507011957 57 349 1.0 1.0 0.00 0.04 0.04 96 1004.0
20260507011455 57 329 3.0 3.0 0.00 0.04 0.04 95 1004.1
20260507010950 57 73 1.0 1.0 0.00 0.04 0.04 96 1004.1
20260507010445 57 57 1.0 1.0 0.00 0.04 0.04 96 1004.1
20260507005942 57 24 0.0 0.0 0.00 0.04 0.04 96 1004.2
20260507005439 57 252 1.0 2.0 0.00 0.04 0.04 96 1004.0
20260507004936 57 298 1.0 2.0 0.00 0.04 0.04 96 1004.1
20260507004432 57 29 2.0 2.0 0.00 0.04 0.04 96 1004.1
20260507003930 57 40 1.0 2.0 0.00 0.04 0.04 96 1004.3
20260507003425 57 249 1.0 2.0 0.00 0.04 0.04 96 1004.2
20260507002920 57 142 3.0 4.0 0.00 0.04 0.04 96 1004.0
20260507002417 57 197 3.0 3.0 0.00 0.04 0.04 96 1004.2
20260507001914 57 237 3.0 4.0 0.00 0.04 0.04 96 1004.1
20260507001411 57 309 2.0 3.0 0.00 0.04 0.04 96 1003.8
20260507000908 57 114 2.0 3.0 0.07 0.04 0.04 96 1003.9
20260507000405 57 193 4.0 4.0 0.07 0.04 0.04 96 1003.8
20260506235859 57 172 4.0 4.0 0.00 0.03 0.03 96 1004.0
20260506235357 56 200 3.0 3.0 0.00 0.03 0.03 96 1004.1
20260506234852 56 142 2.0 6.0 0.05 0.03 0.03 96 1004.0
20260506234350 56 130 2.0 2.0 0.05 0.03 0.03 96 1004.0
20260506233848 56 53 2.0 2.0 0.00 0.02 0.02 96 1004.0
20260506233343 56 174 3.0 4.0 0.00 0.02 0.02 96 1003.9
20260506232841 56 7 1.0 2.0 0.00 0.02 0.02 96 1003.9
20260506232337 56 145 4.0 4.0 0.00 0.02 0.02 96 1003.9
20260506231833 56 57 2.0 3.0 0.00 0.02 0.02 96 1004.0
20260506231331 57 135 5.0 7.0 0.00 0.02 0.02 95 1004.1
20260506230828 57 204 4.0 8.0 0.00 0.02 0.02 96 1003.9
20260506230325 57 148 2.0 3.0 0.00 0.02 0.02 96 1004.0
20260506225821 57 236 4.0 6.0 0.00 0.02 0.02 96 1004.0
20260506225318 57 196 3.0 4.0 0.00 0.02 0.02 96 1004.0
20260506224815 57 182 5.0 6.0 0.07 0.02 0.02 95 1004.2
20260506224312 57 114 3.0 6.0 0.07 0.02 0.02 95 1004.1
20260506223809 57 175 3.0 6.0 0.00 0.01 0.01 95 1004.3
20260506223303 57 162 2.0 3.0 0.00 0.01 0.01 95 1004.2
20260506222800 57 294 2.0 2.0 0.00 0.01 0.01 95 1004.2
20260506222256 58 169 2.0 3.0 0.00 0.01 0.01 94 1004.4
20260506221749 58 31 2.0 2.0 0.00 0.01 0.01 94 1004.3
20260506221246 58 47 4.0 4.0 0.00 0.01 0.01 94 1004.5
20260506220744 58 116 2.0 3.0 0.00 0.01 0.01 94 1004.4
20260506220238 58 185 5.0 8.0 0.00 0.01 0.01 93 1004.6
20260506215736 59 304 4.0 4.0 0.00 0.01 0.01 93 1004.7
20260506215231 59 126 3.0 4.0 0.00 0.01 0.01 93 1004.7
20260506214728 59 78 2.0 2.0 0.00 0.01 0.01 92 1004.7
20260506214225 59 137 4.0 7.0 0.00 0.01 0.01 92 1004.8
20260506213723 59 140 4.0 7.0 0.00 0.01 0.01 91 1004.8